Vedmezhe / Volodarsk

Ukraine / Luhansk Region     48˚07′26″N   39˚35′07″E
temp.,
°C
wind,
m/s
gust,
m/s
humid.,
%
clouds,
%
prec.,
mm/h
press.,
hPa
HPBL,
m
29 november, sun
sun2923:00+1˚se6119713 0.0 1025330
02:00+3˚se7109555 0.0 1025375
05:00+3˚se71196100 0.0 1024426
08:00+4˚se81294100 0.0 1025527
11:00+7˚se81383100 0.0 1025570
14:00+7˚se8117999 0.0 1025664
17:00+6˚se7128092 0.0 1026637
20:00+5˚se7128496 0.0 1027648
30 november, mon
mon3023:00+4˚ese6139398 0.0 1027453
02:00+4˚ese7129098 0.0 1027557
05:00+4˚ese71287100 0.0 1027595
08:00+2˚ese7128081 0.0 1028493
11:00+4˚ese7127493 0.0 1027718
14:00+5˚ese8127397 0.0 10261003
17:00+4˚ese7137396 0.0 1026834
20:00+2˚ese8147385 0.0 1026753
1 december, tue
tue123:00+1˚ese7147672 0.0 1026587
02:00ese7158036 0.0 1027484
05:00−1˚ese815862 0.0 1027499
08:00−1˚e814835 0.0 1028544
11:00+1˚ese9137446 0.0 1028634
14:00+1˚e8127565 0.0 1027724
17:00e81378100 0.0 1028672
20:00e8138093 0.0 1028724
2 december, wed
wed223:00−2˚e8148477 0.0 1028548
02:00−2˚e8138782 0.1 1029540
05:00−2˚e7128689 0.0 1029537
08:00−1˚e7128594 0.1 1029486
11:00−1˚e71179100 0.0 1029546
14:00e7117596 0.0 1028638
17:00−1˚e71276100 0.0 1029561
20:00−1˚ese7137697 0.0 1030527
3 december, thu
thu323:00−2˚ese71279100 0.0 1030471
02:00−2˚e71179100 0.0 1030447
05:00−2˚e7128194 0.0 1030444
08:00−2˚ese7117997 0.0 1031443
11:00−1˚ese71174100 0.0 1031490
14:00−1˚ese71173100 0.0 1030548
17:00−1˚ese7136994 0.0 1030551
20:00−1˚ese7136795 0.0 1030490